Location: Noordwijk
(52.2400°N, 4.4500°E)
Time: 02:12:45
(UTC+00:00)

PCSat - Pass Details

Date: 16 December 2022
Orbit: 785 x 793 km, 67.0° (Epoch: 28 January)

Event Time Altitude Azimuth Distance (km) Brightness Sun altitude
Rises 20:18:45 0° 298° (WNW) 3,295 13.6 -42.5°
Reaches altitude 10° 20:22:04 10° 319° (NW) 2,367 12.5 -43.0°
Enters shadow 20:22:22 11° 321° (NW) 2,303 12.4 -43.1°
